This is the latest recevied weather packets stored in our database for station/object N8ESC. If no packets are shown the sender has not sent any weather packets the latest 1 day(s).
| Time | Temp. | Humidity | Pressure | Rain* | Wind** | Luminosity | Snow |
|---|---|---|---|---|---|---|---|
| 1777993741 | 9.44° C | 43% | 1003.6 hPa | 0 mm | 2.68 m/s, 33° | 749 W/m² | - |
| 1777993439 | 8.89° C | 45% | 1003.5 hPa | 0 mm | 1.34 m/s, 321° | 629 W/m² | - |
| 1777993138 | 8.89° C | 46% | 1003.6 hPa | 0 mm | 1.34 m/s, 236° | 617 W/m² | - |
| 1777992836 | 7.78° C | 47% | 1003.8 hPa | 0 mm | 2.24 m/s, 283° | 218 W/m² | - |
| 1777992534 | 8.33° C | 48% | 1003.5 hPa | 0 mm | 4.02 m/s, 288° | 218 W/m² | - |
| 1777992233 | 7.78° C | 48% | 1003.5 hPa | 0 mm | 2.24 m/s, 324° | 206 W/m² | - |
| 1777991929 | 8.33° C | 48% | 1003.7 hPa | 0 mm | 0.89 m/s, 227° | 208 W/m² | - |
| 1777991627 | 8.33° C | 49% | 1003.4 hPa | 0 mm | 2.24 m/s, 320° | 626 W/m² | - |
| 1777991324 | 7.78° C | 50% | 1003.5 hPa | 0 mm | 1.34 m/s, 243° | 520 W/m² | - |
| 1777991021 | 7.78° C | 50% | 1003.7 hPa | 0 mm | 2.68 m/s, 268° | 113 W/m² | - |
| 1777990718 | 7.78° C | 48% | 1003.7 hPa | 0 mm | 3.58 m/s, 286° | 185 W/m² | - |
| 1777990415 | 7.78° C | 48% | 1003.8 hPa | 0 mm | 4.02 m/s, 267° | 227 W/m² | - |
| 1777990112 | 7.78° C | 50% | 1003.7 hPa | 0 mm | 3.13 m/s, 250° | 385 W/m² | - |
| 1777989808 | 7.78° C | 50% | 1003.6 hPa | 0 mm | 2.68 m/s, 261° | 163 W/m² | - |
| 1777989506 | 7.78° C | 49% | 1003.2 hPa | 0 mm | 3.13 m/s, 220° | 182 W/m² | - |
| 1777989202 | 7.78° C | 50% | 1003.4 hPa | 0 mm | 2.68 m/s, 258° | 180 W/m² | - |
| 1777988898 | 7.78° C | 49% | 1003.2 hPa | 0 mm | 2.68 m/s, 279° | 196 W/m² | - |
| 1777988595 | 7.78° C | 50% | 1003.2 hPa | 0 mm | 3.13 m/s, 210° | 479 W/m² | - |
| 1777988292 | 7.78° C | 50% | 1003.4 hPa | 0 mm | 2.24 m/s, 252° | 177 W/m² | - |
| 1777987989 | 7.22° C | 52% | 1003.2 hPa | 0 mm | 3.13 m/s, 252° | 281 W/m² | - |
| 1777987684 | 7.22° C | 53% | 1003.1 hPa | 0 mm | 1.79 m/s, 24° | 213 W/m² | - |
| 1777987381 | 7.22° C | 52% | 1003 hPa | 0 mm | 1.34 m/s, 333° | 199 W/m² | - |
| 1777987079 | 6.67° C | 53% | 1003 hPa | 0 mm | 0.89 m/s, 187° | 344 W/m² | - |
| 1777986776 | 6.67° C | 53% | 1003 hPa | 0 mm | 1.79 m/s, 268° | 182 W/m² | - |
| 1777986473 | 6.67° C | 53% | 1002.8 hPa | 0 mm | 2.68 m/s, 279° | 156 W/m² | - |
* Rain latest hour (hover to see other rain measurements)
** Current wind speed in m/s (hover to see current wind gust speed)